Weather History for Findlay, OH

Change the Weather History Date:

Monday, November 5, 2012

  Actual Average Record
Temperature  
Mean Temperature 34 °F -  
Max Temperature 43 °F 49 °F 74 °F (1978)
Min Temperature 26 °F 35 °F 15 °F (1991)
Degree Days  
Heating Degree Days 30    
Moisture  
Dew Point 26 °F    
Average Humidity 73    
Maximum Humidity 92    
Minimum Humidity 51    
Precipitation  
Precipitation 0.00 in - - ()
Sea Level Pressure  
Sea Level Pressure 30.17 in    
Wind  
Wind Speed 2 mph (ENE)    
Max Wind Speed 9 mph    
Max Gust Speed -    
Visibility 10 miles    
Events      
Averages and records for this station are not official NWS values.
T = Trace of Precipitation, MM = Missing Value Source: NWS Daily Summary

Daily Weather History Graph

Daily Weather History Graph

Search for Another Location

Airport:

Trip Planner

Search our weather history database for the weather conditions in past years. The results will help you decide how hot, cold, wet, or windy it might be!

Date:

Astronomy

Nov. 05, 2012 Rise Set
Actual Time 7:10 AM EST 5:25 PM EST
Civil Twilight 6:41 AM EST 5:54 PM EST
Nautical Twilight 6:09 AM EST 6:26 PM EST
Astronomical Twilight 5:37 AM EST 6:58 PM EST
Moon 11:01 PM EST (11/5) 12:29 PM EST (11/5)
Length of Visible Light 11h 12m
Length of Day
10h 14m
Waning Gibbous, 63% of the Moon is Illuminated
Nov 5
Waning Gibbous
Nov 6
Last Quarter
Nov 13
New
Nov 20
First Quarter
Nov 28
Full

Hourly Weather History & Observations

Time (EST) Temp. Windchill Dew Point Humidity Pressure Visibility Wind Dir Wind Speed Gust Speed Precip Events Conditions
12:53 AM 28.9 °F - 24.1 °F 82% 30.17 in 10.0 mi Calm Calm - N/A   Clear
1:53 AM 26.1 °F - 21.9 °F 84% 30.16 in 10.0 mi Calm Calm - N/A   Clear
2:53 AM 26.1 °F - 23.0 °F 88% 30.17 in 10.0 mi Calm Calm - N/A   Scattered Clouds
3:53 AM 26.1 °F - 23.0 °F 88% 30.17 in 9.0 mi Calm Calm - N/A   Scattered Clouds
4:53 AM 27.0 °F - 25.0 °F 92% 30.18 in 8.0 mi Calm Calm - N/A   Overcast
5:53 AM 28.0 °F - 25.0 °F 88% 30.19 in 9.0 mi Calm Calm - N/A   Overcast
7:53 AM 30.0 °F - 26.1 °F 85% 30.20 in 7.0 mi Calm Calm - N/A   Overcast
8:53 AM 33.1 °F - 28.0 °F 82% 30.21 in 9.0 mi Calm Calm - N/A   Overcast
9:53 AM 37.0 °F - 28.9 °F 73% 30.21 in 10.0 mi Calm Calm - N/A   Overcast
10:53 AM 39.9 °F 34.5 °F 27.0 °F 60% 30.20 in 10.0 mi ENE 8.1 mph - N/A   Scattered Clouds
11:53 AM 39.9 °F 37.8 °F 27.0 °F 60% 30.20 in 10.0 mi Variable 3.5 mph - N/A   Partly Cloudy
12:53 PM 42.1 °F - 28.0 °F 58% 30.17 in 10.0 mi Calm Calm - N/A   Scattered Clouds
1:53 PM 43.0 °F 41.3 °F 26.1 °F 51% 30.17 in 10.0 mi Variable 3.5 mph - N/A   Mostly Cloudy
2:53 PM 42.1 °F 37.1 °F 27.0 °F 55% 30.16 in 10.0 mi NE 8.1 mph - N/A   Mostly Cloudy
3:53 PM 42.1 °F 37.7 °F 27.0 °F 55% 30.16 in 10.0 mi NNE 6.9 mph - N/A   Clear
4:53 PM 39.0 °F 32.8 °F 27.0 °F 62% 30.15 in 10.0 mi ENE 9.2 mph - N/A   Clear
5:53 PM 37.0 °F 31.6 °F 27.0 °F 67% 30.15 in 10.0 mi ENE 6.9 mph - N/A   Clear
6:53 PM 35.1 °F 31.0 °F 26.1 °F 70% 30.17 in 10.0 mi ENE 4.6 mph - N/A   Clear
7:53 PM 34.0 °F 28.0 °F 27.0 °F 75% 30.17 in 10.0 mi ENE 6.9 mph - N/A   Clear
8:53 PM 34.0 °F 28.8 °F 27.0 °F 75% 30.17 in 10.0 mi ENE 5.8 mph - N/A   Clear
9:53 PM 32.0 °F 26.4 °F 26.1 °F 79% 30.17 in 10.0 mi East 5.8 mph - N/A   Clear
10:53 PM 32.0 °F 27.5 °F 26.1 °F 79% 30.16 in 10.0 mi East 4.6 mph - N/A   Clear
11:53 PM 30.9 °F 25.2 °F 26.1 °F 82% 30.15 in 10.0 mi East 5.8 mph - N/A   Clear